Stations météo

réclame
Mon MeteoGroup
Oostende Airport, Belgique (6407): Température de l'air & dewpoint: 26.05.2020 00:00:00 - 01.06.2020 00:00:00 (CEST)Oostende Airport, Belgique (6407): Vitesse du vent & gusts: 26.05.2020 00:00:00 - 01.06.2020 00:00:00 (CEST)Oostende Airport, Belgique (6407): Direction du vent: 26.05.2020 00:00:00 - 01.06.2020 00:00:00 (CEST)Oostende Airport, Belgique (6407): reduced air pressure: 26.05.2020 00:00:00 - 01.06.2020 00:00:00 (CEST)Oostende Airport, Belgique (6407): visibility: 26.05.2020 00:00:00 - 01.06.2020 00:00:00 (CEST)
Date & Time tt [°C] td [°C] ff [km/h] ff [knt] fx [km/h] fx [knt] dd ppp [hPa] vv [km]
01.06.2020 00:00:00 15,0 12,2 15 8 22 12 NE 1022,3 10
31.05.2020 23:00:00 15,4 11,8 15 8 - - NE 1022,2 10
31.05.2020 22:00:00 15,8 11,9 18 10 32 18 NNE 1022,0 10
31.05.2020 21:00:00 16,3 11,8 22 12 40 21 NNE 1021,7 10
31.05.2020 20:00:00 16,8 11,4 28 15 - - NNE 1021,6 10
31.05.2020 19:00:00 17,9 10,3 28 15 43 23 NE 1021,7 10
31.05.2020 18:00:00 18,5 10,3 29 16 43 23 NNE 1021,9 10
31.05.2020 17:00:00 18,9 10,7 34 18 - - NNE 1022,0 10
31.05.2020 16:00:00 19,0 10,2 31 17 43 23 NNE 1022,2 10
31.05.2020 15:00:00 19,3 9,1 31 17 50 27 NNE 1022,4 10
31.05.2020 14:00:00 20,6 5,3 35 19 - - NE 1022,5 10
31.05.2020 13:00:00 20,4 5,4 28 15 43 23 NNE 1022,8 10
31.05.2020 12:00:00 20,5 7,3 24 13 40 21 NE 1023,3 10
31.05.2020 11:00:00 20,5 5,8 21 11 - - E 1023,3 10
31.05.2020 10:00:00 19,1 5,8 18 10 25 14 ENE 1023,4 10
31.05.2020 09:00:00 17,5 5,8 18 10 25 14 E 1023,2 10
31.05.2020 08:00:00 15,1 6,5 16 9 - - E 1023,0 10
31.05.2020 07:00:00 13,3 6,5 15 8 22 12 E 1022,6 10
31.05.2020 06:00:00 12,4 6,7 15 8 22 12 E 1022,4 10
31.05.2020 05:00:00 13,0 6,8 16 9 - - E 1022,2 10
31.05.2020 04:00:00 12,8 7,5 15 8 18 10 E 1022,2 10
31.05.2020 03:00:00 13,8 7,8 13 7 22 12 E 1022,2 10
31.05.2020 02:00:00 14,9 8,3 18 10 - - ENE 1022,3 20
31.05.2020 01:00:00 16,3 8,9 18 10 32 18 ENE 1022,2 10
31.05.2020 00:00:00 16,3 10,7 18 10 29 16 ENE 1022,0 10
30.05.2020 23:00:00 16,2 10,9 18 10 - - NE 1021,9 10
30.05.2020 22:00:00 16,6 10,2 26 14 43 23 NE 1021,4 10
30.05.2020 21:00:00 17,5 9,5 29 16 50 27 NE 1021,1 10
30.05.2020 20:00:00 18,3 9,1 34 18 - - NE 1021,3 10
30.05.2020 19:00:00 19,1 8,2 37 20 54 29 NE 1021,4 10
30.05.2020 18:00:00 20,2 8,7 29 16 47 25 NE 1021,8 10
30.05.2020 17:00:00 20,6 8,8 28 15 - - NNE 1022,1 10
30.05.2020 16:00:00 22,7 5,5 28 15 43 23 NNE 1022,4 10
30.05.2020 15:00:00 23,2 4,7 28 15 40 21 NNE 1022,4 10
30.05.2020 14:00:00 23,3 3,6 13 7 - - ENE 1023,1 10
30.05.2020 13:00:00 22,3 3,5 21 11 36 19 E 1023,3 10
30.05.2020 12:00:00 21,2 5,0 21 11 32 18 E 1023,6 10
30.05.2020 11:00:00 19,5 6,7 18 10 - - E 1023,7 10
30.05.2020 10:00:00 17,2 6,6 18 10 25 14 ENE 1023,8 10
30.05.2020 09:00:00 15,8 7,7 18 10 25 14 E 1023,8 10
30.05.2020 08:00:00 14,2 8,4 15 8 - - E 1023,7 10
30.05.2020 07:00:00 12,3 8,2 13 7 22 12 E 1023,8 10
30.05.2020 06:00:00 11,9 8,5 15 8 22 12 E 1023,8 10
30.05.2020 05:00:00 12,0 9,0 15 8 - - E 1023,9 10
30.05.2020 04:00:00 12,4 9,9 13 7 25 14 E 1024,1 10
30.05.2020 03:00:00 13,9 10,6 16 9 25 14 ENE 1024,2 10
30.05.2020 02:00:00 14,2 10,8 16 9 - - ENE 1024,5 10
30.05.2020 01:00:00 14,5 11,5 16 9 25 14 ENE 1024,6 10
30.05.2020 00:00:00 14,5 12,3 18 10 32 18 NE 1024,6 10
29.05.2020 23:00:00 14,4 11,7 22 12 - - NE 1024,6 10
29.05.2020 22:00:00 14,4 10,8 24 13 40 21 NNE 1024,8 10
29.05.2020 21:00:00 14,7 10,1 26 14 40 21 NNE 1024,9 10
29.05.2020 20:00:00 15,6 8,8 26 14 - - NNE 1025,3 10
29.05.2020 19:00:00 16,3 9,0 28 15 40 21 NNE 1025,8 10
29.05.2020 18:00:00 16,5 9,4 28 15 40 21 NNE 1026,4 10
29.05.2020 17:00:00 16,4 9,3 29 16 - - NNE 1026,7 10
29.05.2020 16:00:00 17,1 9,4 31 17 40 21 NNE 1027,2 10
29.05.2020 15:00:00 17,1 9,8 28 15 40 21 NNE 1027,8 10
29.05.2020 14:00:00 17,9 10,1 26 14 - - NNE 1028,3 10
29.05.2020 13:00:00 18,0 8,9 26 14 43 23 NNE 1028,9 10
29.05.2020 12:00:00 17,6 8,8 21 11 29 16 NNE 1029,3 10
29.05.2020 11:00:00 17,5 6,9 11 6 - - ENE 1029,4 10
29.05.2020 10:00:00 15,5 6,5 15 8 22 12 ENE 1029,6 10
29.05.2020 09:00:00 13,2 6,6 16 9 29 16 E 1029,7 10
29.05.2020 08:00:00 11,5 6,5 21 11 - - E 1029,7 10
29.05.2020 07:00:00 10,6 6,3 16 9 25 14 ENE 1030,1 10
29.05.2020 06:00:00 10,2 6,1 15 8 25 14 ENE 1030,1 10
29.05.2020 05:00:00 10,9 5,6 18 10 - - ENE 1029,9 10
29.05.2020 04:00:00 11,3 5,2 16 9 29 16 ENE 1030,3 10
29.05.2020 03:00:00 12,4 5,4 21 11 29 16 ENE 1030,5 10
29.05.2020 02:00:00 12,9 6,4 21 11 - - ENE 1030,6 10
29.05.2020 01:00:00 13,8 8,6 22 12 36 19 ENE 1030,9 10
29.05.2020 00:00:00 14,0 9,4 24 13 36 19 NE 1031,0 10
28.05.2020 23:00:00 14,0 9,2 24 13 - - NE 1031,1 10
28.05.2020 22:00:00 14,2 9,1 29 16 43 23 NE 1031,1 10
28.05.2020 21:00:00 14,8 9,0 29 16 50 27 NE 1031,3 10
28.05.2020 20:00:00 15,4 9,2 32 18 - - NE 1031,5 25
28.05.2020 19:00:00 16,1 8,6 34 18 50 27 NE 1031,8 10
28.05.2020 18:00:00 16,0 9,4 34 18 50 27 NE 1032,1 10
28.05.2020 17:00:00 16,5 9,0 35 19 - - NE 1032,7 10
28.05.2020 16:00:00 17,0 8,9 34 18 47 25 NNE 1033,2 10
28.05.2020 15:00:00 17,1 9,5 34 18 43 23 NNE 1033,6 10
28.05.2020 14:00:00 17,7 6,9 29 16 - - NNE 1034,1 10
28.05.2020 13:00:00 18,3 5,7 25 14 40 21 NNE 1034,4 30
28.05.2020 12:00:00 17,3 3,8 26 14 40 21 E 1034,7 10
28.05.2020 11:00:00 16,4 3,7 26 14 - - E 1035,2 10
28.05.2020 10:00:00 14,9 4,5 26 14 43 23 ENE 1035,3 10
28.05.2020 09:00:00 13,5 4,8 24 13 40 21 E 1035,4 10
28.05.2020 08:00:00 12,1 5,0 22 12 - - ENE 1035,3 10
28.05.2020 07:00:00 11,1 4,8 21 11 29 16 ENE 1035,3 10
28.05.2020 06:00:00 10,9 4,9 21 11 29 16 ENE 1035,2 10
28.05.2020 05:00:00 11,7 5,7 21 11 - - ENE 1035,1 10
28.05.2020 04:00:00 12,7 8,2 16 9 32 18 ENE 1034,8 10
28.05.2020 03:00:00 13,1 10,8 22 12 32 18 NE 1034,9 10
28.05.2020 02:00:00 12,9 10,6 21 11 - - NNE 1035,5 10
28.05.2020 01:00:00 12,2 9,4 22 12 29 16 NNE 1035,6 10
28.05.2020 00:00:00 11,9 9,0 18 10 29 16 NNE 1035,7 10
27.05.2020 23:00:00 12,1 9,6 16 9 - - NNE 1035,6 10
27.05.2020 22:00:00 12,8 9,4 22 12 29 16 NNE 1035,4 10
27.05.2020 21:00:00 13,8 10,6 18 10 29 16 NNE 1035,4 10
27.05.2020 20:00:00 15,1 9,8 21 11 - - NE 1035,5 10
27.05.2020 19:00:00 15,8 9,8 21 11 32 18 NNE 1035,5 10
27.05.2020 18:00:00 17,1 8,6 21 11 32 18 NNE 1035,7 10
27.05.2020 17:00:00 17,4 9,9 21 11 - - NNE 1035,9 10
27.05.2020 16:00:00 17,1 11,4 22 12 32 18 NNE 1036,0 10
27.05.2020 15:00:00 17,7 9,8 21 11 43 23 NNE 1036,1 10
27.05.2020 14:00:00 16,8 10,2 21 11 - - NNE 1036,3 10
27.05.2020 13:00:00 16,7 10,1 21 11 29 16 N 1036,3 10
27.05.2020 12:00:00 16,4 10,4 21 11 29 16 NNE 1036,4 10
27.05.2020 11:00:00 16,4 8,9 15 8 - - NNE 1036,0 10
27.05.2020 10:00:00 16,0 8,4 16 9 22 12 NNE 1035,9 10
27.05.2020 09:00:00 15,0 9,1 18 10 25 14 NNE 1036,0 10
27.05.2020 08:00:00 14,6 8,8 13 7 - - NNE 1035,9 10
27.05.2020 07:00:00 13,5 8,2 11 6 18 10 NNE 1035,7 10
27.05.2020 06:00:00 12,3 7,8 11 6 18 10 NNE 1035,5 10
27.05.2020 05:00:00 12,8 9,4 13 7 - - NNE 1035,5 10
27.05.2020 04:00:00 12,8 9,3 11 6 18 10 NNE 1035,5 10
27.05.2020 03:00:00 13,3 9,6 9 5 14 8 NNE 1035,6 10
27.05.2020 02:00:00 13,3 8,3 8 4 - - NE 1035,6 10
27.05.2020 01:00:00 14,0 8,4 11 6 22 12 NE 1035,9 10
27.05.2020 00:00:00 14,3 7,4 15 8 25 14 NE 1035,9 10
26.05.2020 23:00:00 14,6 8,9 18 10 - - NE 1036,0 10
26.05.2020 22:00:00 15,3 9,4 18 10 25 14 NNE 1035,9 10
26.05.2020 21:00:00 16,4 7,4 13 7 22 12 NE 1035,6 10
26.05.2020 20:00:00 17,9 8,2 15 8 - - NE 1035,6 10
26.05.2020 19:00:00 18,3 7,6 16 9 22 12 NNE 1035,7 10
26.05.2020 18:00:00 18,2 8,9 16 9 22 12 N 1035,9 10
26.05.2020 17:00:00 18,3 9,6 18 10 - - NNW 1036,2 10
26.05.2020 16:00:00 19,7 10,6 15 8 22 12 NNW 1036,1 10
26.05.2020 15:00:00 19,8 9,3 16 9 22 12 NNW 1036,3 10
26.05.2020 14:00:00 18,0 10,2 13 7 - - NNW 1036,6 10
26.05.2020 13:00:00 18,6 9,3 15 8 18 10 NNW 1036,5 10
26.05.2020 12:00:00 19,1 7,9 14 8 22 12 WNW 1036,5 20
26.05.2020 11:00:00 20,2 9,5 8 4 - - WSW 1036,4 10
26.05.2020 10:00:00 18,0 10,1 8 4 14 8 SSW 1036,3 10
26.05.2020 09:00:00 15,2 9,7 5 3 11 6 S 1036,1 10
26.05.2020 08:00:00 11,6 9,3 5 3 - - SSE 1036,0 10
26.05.2020 07:00:00 8,3 7,3 5 3 7 4 SE 1035,9 10
26.05.2020 06:00:00 7,2 6,3 4 2 7 4 S 1035,6 10
26.05.2020 05:00:00 8,9 8,1 5 3 - - ESE 1035,5 10
26.05.2020 04:00:00 8,0 6,8 4 2 7 4 ESE 1035,7 10
26.05.2020 03:00:00 9,9 6,7 4 2 4 2 E 1035,6 10
26.05.2020 02:00:00 10,2 8,5 0 0 - - N 1035,7 10
26.05.2020 01:00:00 11,2 8,6 5 3 11 6 E 1035,5 10
26.05.2020 00:00:00 11,4 8,6 8 4 14 8 ESE 1035,3 10

tt = Température de l'air
td = dewpoint
ff = Vitesse du vent
fx = gusts
dd = Direction du vent
ppp = reduced air pressure
vv = visibility

stations d'obs. à proximité